Theta_e
323 317 316 314 304 302 297 299 301 303 304 308 316 313 314 315 313 307 329 336 339 339 340 346 346 348 347 347 346 347 347 346 346 345 345 344 343 342 341 340 341 340 340 340 339 337 337 337 337
315 317 316 309 301 296 298 300 299 304 308 312 312 314 314 313 323 325 330 337 340 338 341 345 344 347 347 347 347 347 346 345 345 345 344 341 340 339 338 337 340 338 336 338 337 335 335 336 336
312 315 309 304 298 297 297 298 299 306 311 309 311 314 314 314 324 327 334 338 338 338 340 343 344 347 348 348 348 347 346 345 343 341 342 339 337 338 337 337 336 336 335 335 335 334 333 334 335
309 308 307 301 299 302 301 303 301 306 309 308 312 310 316 322 327 331 337 337 337 336 338 342 345 347 347 346 347 347 346 345 344 341 338 338 337 341 339 337 336 335 334 334 333 332 332 333 333
307 304 297 299 300 303 303 303 304 305 306 308 311 309 314 324 332 336 336 336 334 335 338 344 344 345 346 346 346 346 346 345 343 341 338 336 336 338 339 339 336 334 334 333 333 332 331 331 331
301 303 296 294 297 302 303 304 304 304 305 308 310 311 315 327 331 334 336 334 335 334 338 342 338 340 343 345 345 344 345 345 341 337 335 335 337 337 336 336 336 334 334 333 333 332 331 331 330
303 297 293 295 296 299 302 303 303 304 304 307 312 308 314 323 332 335 335 335 334 335 337 340 340 340 336 339 340 342 342 342 341 339 336 334 337 337 337 336 336 334 333 333 333 332 332 332 331
302 299 294 294 295 297 303 303 305 304 304 312 314 307 309 323 333 334 333 332 331 333 334 335 336 341 342 342 334 336 337 338 338 337 334 332 332 333 333 332 335 335 333 333 333 333 332 331 330
305 296 292 294 296 299 303 301 303 306 306 310 313 310 315 329 332 330 329 329 329 329 331 332 332 337 339 340 335 331 332 333 332 332 329 328 335 334 332 328 331 334 335 334 333 332 331 331 327
300 292 294 298 301 303 305 301 303 305 306 308 313 318 325 328 329 326 326 327 326 326 327 329 331 334 336 337 336 335 334 335 334 333 333 332 331 332 329 325 326 330 330 332 333 333 332 328 329
298 293 296 297 300 306 306 303 304 304 303 306 310 315 323 324 326 327 327 328 327 327 327 328 330 333 334 335 333 332 332 332 332 332 332 331 329 329 329 328 327 329 323 329 328 329 329 328 327
295 298 299 300 305 305 304 305 302 304 306 310 311 319 323 323 325 326 327 328 328 328 327 328 330 331 332 333 331 331 329 329 329 331 330 330 329 328 327 326 326 326 327 327 327 327 326 325 324
295 297 299 301 301 303 303 302 304 303 306 313 315 321 322 323 324 327 328 330 330 328 329 328 329 330 330 330 329 329 328 328 328 328 330 329 328 327 327 326 326 325 325 324 324 324 323 323 322
296 298 299 300 299 299 299 299 301 301 307 313 317 318 322 323 325 326 327 328 329 329 329 329 329 331 331 329 328 328 328 328 327 326 327 328 328 327 325 325 325 325 325 325 324 323 323 322 322
297 294 296 298 298 298 301 296 298 303 309 310 314 317 320 322 325 325 327 327 329 330 330 329 330 331 330 329 328 327 328 327 326 326 326 326 325 325 325 324 323 324 324 324 323 322 322 322 322
294 294 289 295 298 299 300 293 297 302 306 306 311 313 317 320 324 326 328 328 329 330 329 330 331 330 330 329 328 327 327 327 327 326 326 325 325 325 325 324 324 325 324 323 322 322 322 321 321
291 285 288 292 297 298 296 292 298 299 303 303 307 311 314 316 320 324 327 329 330 331 330 330 331 329 329 329 328 328 327 326 326 326 325 325 324 325 324 324 324 324 323 323 322 322 321 321 321
285 284 287 289 294 296 294 292 296 299 300 302 305 308 311 314 318 321 323 327 329 330 331 331 330 330 330 329 328 327 327 326 326 326 325 325 325 324 324 324 323 323 323 322 321 320 320 320 320
290 288 287 290 294 294 293 294 297 299 298 299 301 303 307 311 318 320 323 324 326 328 328 329 330 329 328 327 326 326 325 326 326 327 327 327 326 325 325 324 324 324 322 322 320 319 318 318 318
289 287 287 290 293 293 291 291 295 297 297 298 299 300 303 307 309 314 318 321 323 324 327 327 328 329 328 329 329 327 327 327 330 330 329 329 328 328 326 326 327 326 324 323 322 321 321 321 322
287 287 287 288 289 290 288 288 291 295 297 298 298 300 301 303 305 305 306 315 320 322 324 326 327 327 329 330 328 325 324 323 324 325 327 327 328 327 327 327 328 327 327 325 325 324 321 320 322
283 290 290 288 286 283 288 281 287 290 292 293 297 297 299 301 302 302 302 308 315 317 320 323 325 326 327 328 327 326 326 324 324 325 326 326 326 327 327 327 326 326 325 324 325 325 324 322 319
285 291 290 287 284 283 283 282 285 287 289 291 294 295 296 297 300 297 296 298 298 301 304 313 320 323 325 327 327 326 325 326 325 324 324 324 324 325 325 326 325 325 325 325 325 324 324 323 322
289 286 285 285 286 278 282 282 283 286 289 290 290 290 293 293 294 296 297 298 299 301 302 302 304 306 319 324 325 324 324 324 322 322 322 322 323 323 324 324 325 325 325 325 326 325 323 323 323
285 283 277 278 279 277 278 280 284 289 289 288 288 289 291 293 295 296 298 299 301 303 306 307 305 307 304 307 318 323 323 324 323 323 322 322 322 321 322 323 323 324 325 326 326 326 324 323 323
283 283 276 269 272 276 280 279 284 286 287 289 289 291 293 294 296 297 298 298 299 301 306 309 309 309 309 305 303 304 310 313 316 320 322 322 322 322 324 323 322 323 324 325 326 326 325 325 324
283 280 282 275 266 272 276 279 283 285 285 287 289 291 292 293 294 295 296 297 298 299 301 306 307 307 308 309 310 310 310 309 308 310 313 316 318 319 320 321 321 321 322 323 324 322 323 323 323
284 285 278 275 266 266 272 275 278 282 283 285 287 289 291 292 293 294 294 295 296 297 298 299 301 301 303 305 307 307 307 308 308 310 310 311 313 315 315 317 318 321 320 320 322 321 319 317 315
281 279 279 279 277 271 270 275 281 281 284 285 286 289 290 290 290 291 292 293 294 295 295 296 297 298 299 300 300 301 301 303 305 306 306 306 308 309 311 313 315 316 315 314 314 312 310 311 310
284 280 279 276 273 274 275 275 282 283 284 286 286 289 289 290 290 290 291 292 293 293 294 294 295 296 296 298 298 298 299 299 299 300 301 302 304 304 304 306 308 307 307 307 307 307 305 305 304
Wind_Speed
7 3 1 4 3 3 2 4 1 3 2 2 6 5 7 3 4 3 1 4 15 17 15 14 16 18 18 17 16 14 13 15 16 15 15 14 15 15 14 13 12 12 11 12 15 13 12 12 12
5 1 3 2 4 1 4 2 4 4 2 7 4 3 2 3 2 5 10 9 17 15 13 12 15 18 18 17 16 14 14 14 15 15 15 13 13 11 12 13 11 11 11 11 11 10 10 11 12
3 3 2 4 2 3 4 4 4 1 5 3 4 1 2 2 2 10 4 18 16 12 11 10 14 18 17 15 15 15 14 14 13 12 12 11 11 12 12 11 11 11 10 10 9 9 9 10 10
4 4 3 4 4 5 5 2 3 5 3 2 3 3 1 1 6 6 15 16 14 12 10 11 15 17 16 14 14 15 14 14 12 12 11 10 10 8 10 13 10 9 9 9 8 8 8 8 9
4 3 1 1 4 5 4 3 7 5 3 3 3 3 1 2 4 12 14 13 16 12 10 11 14 15 15 14 14 13 13 13 14 10 11 10 8 6 9 10 9 9 8 8 7 7 8 7 8
4 3 1 3 5 4 5 3 6 5 3 3 3 5 3 1 11 12 12 14 15 15 11 8 10 12 13 13 13 12 12 10 9 11 11 10 10 8 8 8 8 6 10 7 6 6 7 7 7
1 2 4 4 4 4 4 6 4 6 5 4 5 5 1 5 8 11 11 12 13 13 12 10 8 11 11 11 11 11 11 10 8 10 11 10 10 9 8 7 7 4 5 7 5 4 4 5 6
5 2 2 4 4 6 3 4 2 6 6 3 3 4 4 6 11 10 10 11 13 12 11 12 8 8 10 10 11 11 11 10 10 8 8 8 7 8 7 6 6 6 5 4 3 3 2 3 4
4 1 4 5 6 5 4 4 1 0 5 2 5 4 1 15 14 11 10 10 11 10 11 11 9 8 8 9 8 9 10 10 10 10 9 7 5 6 6 5 5 5 5 5 4 3 1 1 3
4 5 8 5 4 3 2 5 6 4 4 3 3 3 9 17 14 15 15 13 13 14 13 11 11 10 7 7 8 7 6 6 5 5 7 5 5 4 4 4 5 4 4 3 3 3 2 1 2
5 7 5 4 4 3 2 3 6 6 4 7 9 9 14 15 13 13 13 13 14 15 12 12 12 9 9 7 6 4 3 4 4 5 6 6 4 3 3 2 2 2 1 2 1 2 2 3 2
4 7 5 3 2 1 2 2 3 6 5 1 7 14 18 19 16 15 14 12 14 15 15 14 13 10 10 6 6 6 5 4 4 5 6 6 4 4 4 3 3 3 2 3 2 2 3 4 4
5 4 4 6 7 4 1 4 3 7 8 3 8 13 17 17 17 14 13 11 13 13 13 15 14 12 10 9 7 6 6 6 6 6 6 6 5 5 4 4 3 3 3 3 3 3 3 4 4
2 5 8 6 6 5 6 3 6 4 1 3 7 10 13 17 18 14 14 14 15 13 13 14 14 13 12 10 10 8 7 7 6 5 6 7 6 5 5 5 5 4 4 4 4 4 3 4 3
4 8 6 6 5 6 5 7 9 7 3 5 6 7 10 15 17 19 14 18 15 13 12 16 14 12 12 12 10 8 7 7 6 6 7 7 7 7 6 5 5 5 4 5 4 4 4 4 4
4 5 7 1 10 6 10 11 6 6 6 9 7 5 7 11 16 14 14 16 15 12 15 13 11 13 12 11 9 7 7 7 7 6 6 8 8 8 7 6 6 5 4 4 4 4 5 5 5
4 5 7 4 9 4 7 4 7 4 7 8 7 7 6 5 8 11 11 14 12 12 12 12 12 13 12 10 8 8 9 7 7 7 7 9 9 9 8 7 7 6 5 5 4 4 5 5 5
4 3 2 6 5 4 4 6 3 2 6 8 5 5 6 7 12 7 9 10 10 11 11 11 10 11 11 7 6 5 5 6 6 7 7 10 8 10 9 7 7 6 5 5 5 6 5 5 5
4 3 9 3 5 4 8 6 12 2 2 4 6 6 7 10 5 6 10 10 9 10 11 12 11 11 9 5 5 4 7 7 7 7 10 12 10 10 9 7 8 7 7 7 7 4 6 4 4
4 1 6 4 2 5 1 7 8 5 6 7 7 7 7 4 5 6 8 9 12 12 12 12 12 11 10 7 6 3 5 4 6 6 9 10 11 10 9 9 8 9 6 6 6 6 3 3 4
5 4 4 4 1 0 1 5 4 5 4 6 6 5 4 8 7 6 8 9 9 11 12 12 12 12 11 10 5 3 2 1 3 5 6 8 9 9 9 9 8 7 6 6 7 7 7 5 4
5 9 4 2 2 4 1 6 5 5 7 7 8 7 7 6 4 4 4 3 6 5 5 7 9 10 10 10 9 10 8 8 6 5 4 4 8 9 9 9 9 9 6 8 7 7 7 5 6
6 8 9 3 3 1 1 1 7 1 5 7 8 7 7 5 5 6 5 5 4 4 4 4 5 5 6 9 9 8 9 6 2 3 5 6 6 7 7 8 9 9 7 8 8 6 7 6 5
7 6 6 4 3 3 4 5 5 4 4 1 2 4 2 4 6 6 6 5 4 5 5 5 5 3 3 6 6 7 7 5 3 3 4 4 4 4 7 7 8 8 8 9 8 8 8 8 7
2 7 2 2 4 6 3 3 6 5 2 1 2 4 4 5 6 6 7 6 5 5 5 5 6 5 4 3 2 4 4 4 5 5 4 4 3 3 6 7 8 7 8 8 8 8 9 8 8
6 6 6 7 4 2 2 6 6 2 3 1 6 5 5 6 5 6 6 5 6 5 6 6 6 6 6 5 4 3 1 1 2 3 3 3 4 4 4 5 6 8 8 9 9 7 6 5 7
5 4 3 8 3 4 3 6 9 2 3 3 5 6 6 6 5 7 6 6 7 6 5 6 7 6 6 6 5 5 4 3 1 2 2 2 3 2 3 4 5 6 7 7 8 6 5 3 3
5 7 3 3 4 2 4 4 6 1 3 3 4 6 5 5 6 6 6 6 5 5 5 5 6 7 5 6 5 4 4 4 3 2 4 3 3 3 3 3 4 5 5 4 4 2 2 3 1
2 1 4 4 3 5 3 6 4 2 4 7 5 5 6 6 6 5 5 5 6 5 5 6 6 7 6 5 4 5 4 4 4 4 4 4 3 4 4 3 3 2 0 3 2 1 2 3 2
1 4 4 5 5 0 2 6 1 5 4 7 7 6 5 5 5 5 5 5 6 6 6 6 5 6 5 4 5 5 5 5 5 5 4 4 4 3 3 3 3 3 2 2 1 1 1 2 3
Wind_Direction
330 4 73 45 50 61 267 258 262 175 168 163 129 153 183 149 173 199 108 167 146 150 153 155 153 148 142 140 140 138 126 115 138 133 120 108 104 101 101 98 94 98 102 89 89 86 79 71 66
315 22 35 82 93 76 264 263 225 214 139 124 99 112 138 180 102 119 133 153 150 146 150 152 149 149 145 145 144 144 133 125 123 124 123 118 109 108 107 105 96 111 107 93 94 94 84 72 70
277 57 75 95 111 196 222 220 226 135 153 130 113 38 137 178 105 159 153 149 148 146 146 148 146 146 147 149 144 142 137 129 129 124 122 120 119 123 120 113 113 109 105 103 100 94 89 82 74
347 18 35 106 230 248 212 251 206 133 258 228 129 136 91 273 160 182 152 149 145 145 143 149 150 151 149 145 137 141 140 137 134 129 127 128 132 114 140 128 117 114 108 106 100 93 88 81 78
15 72 52 132 240 262 250 227 163 181 162 156 153 184 175 43 122 142 147 151 152 152 145 154 150 150 149 147 143 140 143 144 146 145 135 131 131 117 93 110 123 114 111 107 99 94 90 83 74
352 86 73 221 243 252 270 211 155 175 164 149 122 147 172 121 143 150 147 155 155 154 148 151 147 148 152 152 149 146 143 144 150 150 149 146 138 133 113 102 110 130 132 119 102 89 80 74 70
65 89 230 208 246 299 240 146 181 160 150 222 145 146 132 170 160 147 148 146 153 156 152 157 151 154 146 150 150 147 144 138 125 143 154 159 150 145 136 137 137 120 137 116 108 94 74 67 54
118 105 220 232 201 253 177 195 165 163 202 82 157 186 209 179 151 138 142 143 150 155 159 169 164 159 160 158 150 148 144 143 141 134 132 134 137 137 142 150 160 155 142 128 135 129 87 47 39
132 95 241 229 165 241 159 184 173 104 121 198 177 148 307 143 139 141 150 148 154 161 169 174 177 169 162 161 159 152 153 156 167 158 153 150 163 164 165 165 173 155 162 173 180 193 232 350 20
171 157 223 225 199 262 231 170 171 156 145 201 158 60 132 154 158 166 169 162 166 170 176 179 181 178 162 159 156 157 167 170 168 163 157 166 173 180 179 184 202 211 205 215 228 248 272 327 313
204 189 208 272 239 214 250 261 163 149 221 207 193 157 158 165 174 176 178 179 174 174 175 181 183 179 169 164 159 162 163 166 173 181 169 175 174 179 183 185 191 205 197 213 249 271 274 277 285
209 241 184 213 238 179 211 309 217 197 214 317 210 156 165 177 183 181 180 178 177 179 181 181 183 183 177 167 174 175 175 177 183 190 182 175 186 193 196 207 207 212 213 235 242 263 275 277 281
208 226 223 231 250 235 314 240 269 256 262 18 126 152 172 182 188 188 182 180 181 180 181 187 184 183 178 177 179 181 189 189 191 190 191 191 197 205 205 218 221 228 225 234 239 251 269 278 281
278 213 252 246 219 213 194 242 144 276 125 156 158 170 177 187 186 186 189 182 184 187 186 190 188 184 176 182 182 187 189 195 194 198 202 201 206 211 213 224 228 235 231 242 248 255 270 274 275
274 282 293 224 205 233 145 269 218 229 149 210 219 184 179 188 190 197 193 197 188 192 187 193 187 182 183 187 186 186 191 190 196 205 210 212 214 218 220 228 233 236 235 244 244 252 265 274 273
198 164 233 199 162 234 157 252 236 214 177 230 211 219 200 197 197 198 198 202 199 191 193 186 184 183 186 188 185 188 190 193 202 204 209 215 221 223 226 233 238 239 233 227 233 247 264 265 267
251 192 226 319 188 136 187 243 230 167 187 231 227 208 217 214 214 202 194 198 194 195 186 187 185 186 188 188 184 188 191 196 200 203 209 216 218 223 227 231 238 228 228 225 229 241 236 257 260
207 195 242 206 189 173 195 246 226 161 179 223 247 238 217 224 227 192 192 190 185 188 190 190 187 185 185 183 183 190 196 204 200 207 207 209 215 217 218 229 232 223 225 228 222 234 224 244 263
54 343 231 235 212 171 219 214 233 232 274 219 233 229 229 237 206 185 190 190 188 192 187 189 188 186 174 171 177 197 213 214 211 212 214 213 211 211 213 226 226 221 213 217 207 203 222 226 224
292 311 303 285 352 166 213 251 248 225 234 217 211 226 233 219 194 199 191 188 196 193 194 193 193 186 188 188 190 174 174 201 210 209 212 214 208 201 200 206 219 210 202 208 199 196 216 223 184
217 191 239 278 340 3 11 290 231 238 225 236 225 212 216 226 214 213 197 199 192 197 195 196 195 190 190 190 149 121 116 131 179 212 221 220 212 203 204 212 218 216 211 219 210 214 200 237 202
209 186 207 221 158 220 62 273 261 233 241 231 237 206 213 216 198 168 128 125 188 188 177 182 181 185 189 176 183 195 206 212 206 203 208 208 208 214 213 218 221 221 219 224 220 214 216 211 232
211 179 182 151 137 18 272 62 268 319 253 246 235 221 227 222 168 128 102 104 79 100 129 155 175 173 168 188 196 200 213 221 172 176 202 213 216 219 216 218 219 218 212 220 221 203 208 207 224
146 79 46 67 44 309 205 151 277 212 227 38 49 43 351 129 119 106 98 101 75 67 77 78 108 104 169 185 178 198 213 216 216 211 225 233 225 223 224 217 222 225 219 218 218 216 215 214 218
182 117 109 148 200 227 310 188 252 243 244 89 70 61 61 97 106 117 115 109 98 85 82 87 95 74 66 103 162 191 212 217 220 232 231 234 238 229 233 216 224 224 226 226 224 217 219 216 215
187 169 148 172 187 202 330 234 241 178 305 53 101 106 89 85 99 100 98 97 97 88 91 94 94 88 79 85 96 100 94 238 274 279 269 249 242 237 229 217 221 226 219 225 229 231 228 216 231
197 197 153 105 26 73 226 296 299 152 48 93 108 95 90 90 90 100 98 108 99 84 82 96 95 85 75 78 82 75 76 60 9 318 313 299 287 269 260 239 231 228 227 233 234 228 220 225 240
176 156 91 359 116 230 276 282 244 309 128 115 130 122 111 96 91 90 83 84 77 88 78 79 87 87 85 81 70 76 72 53 34 51 50 352 321 327 293 265 244 233 221 211 211 172 182 193 161
107 167 49 113 121 162 149 258 214 297 178 168 155 148 132 114 102 93 86 76 84 83 81 78 74 85 72 71 80 72 55 46 37 32 28 25 13 5 22 5 345 343 322 92 134 113 146 157 155
281 199 152 140 226 136 132 271 21 260 230 163 150 129 118 113 111 102 97 91 79 78 73 72 71 74 66 69 74 62 52 40 39 27 14 14 20 19 22 40 48 48 44 59 79 189 180 199 206